MONITOR-4 (RS57S)

Last updated on Tue Dec 16 2025 00:03:11 GMT+0000 (Coordinated Universal Time)

1 57182U 23091S 25349.36293583 .00008034 00000+0 33839-3 0 9993 2 57182 97.5367 46.7232 0013572 32.6353 327.5720 15.23540508136263
UTC large
Height (km)
Speed (km/s)
/
Latitude / Longitude
Inclination (degrees)
Orbital Period (minutes)
Azimuth
Elevation
Range (km)
Doppler Factor

Next 0 passes for location: London (51.5072 / 0.1276)

Sorry there are no passes over London.